Waarnemingen

Advertentie
Mijn weer
Ornskoldsvik Airport, Zweden (2267): temperatuur & dauwpunt: 13.08.2019 23:00:00 - 19.08.2019 23:00:00 (CEST)Ornskoldsvik Airport, Zweden (2267): windsnelheid: 13.08.2019 23:00:00 - 19.08.2019 23:00:00 (CEST)Ornskoldsvik Airport, Zweden (2267): windrichting: 13.08.2019 23:00:00 - 19.08.2019 23:00:00 (CEST)Ornskoldsvik Airport, Zweden (2267): luchtdruk: 13.08.2019 23:00:00 - 19.08.2019 23:00:00 (CEST)Ornskoldsvik Airport, Zweden (2267): zicht: 13.08.2019 23:00:00 - 19.08.2019 23:00:00 (CEST)
Datum & Tijd tt [°C] td [°C] ff [km/u] ff [kn] dd ppp [hPa] vv [km]
19.08.2019 23:00:00 15,0 9,0 16 9 ZZW - 10
19.08.2019 22:00:00 14,8 9,8 15 8 Z 1003,5 10
19.08.2019 21:00:00 15,0 10,6 15 8 Z 1003,1 10
19.08.2019 20:00:00 16,0 11,0 15 8 Z 1002,7 10
19.08.2019 19:00:00 17,1 11,4 16 9 Z 1002,1 10
19.08.2019 18:00:00 18,3 10,9 21 11 Z 1001,6 10
19.08.2019 17:00:00 18,3 11,6 24 13 Z 1001,1 10
19.08.2019 16:00:00 18,9 12,2 22 12 Z 1000,5 10
19.08.2019 15:00:00 18,1 12,5 21 11 Z 1000,3 10
19.08.2019 14:00:00 17,5 12,6 13 7 Z 999,9 10
19.08.2019 13:00:00 17,4 12,5 16 9 WZW 999,2 10
19.08.2019 12:00:00 16,2 13,5 16 9 WZW 998,8 10
19.08.2019 11:00:00 15,2 13,6 9 5 W 997,6 10
19.08.2019 10:00:00 14,0 14,0 2 1 - 997,9 10
19.08.2019 09:00:00 13,6 13,6 5 3 W 997,3 7
19.08.2019 08:00:00 13,5 13,5 4 2 - 997,6 6
19.08.2019 07:00:00 13,2 13,2 4 2 - 998,1 0,9
19.08.2019 06:00:00 12,7 12,7 5 3 NO 998,9 1,6
19.08.2019 05:00:00 12,1 12,1 5 3 ONO 999,3 0,9
19.08.2019 04:00:00 12,2 12,0 5 3 - 1000,0 0,5
19.08.2019 03:00:00 13,1 12,9 5 3 - 1000,3 10
19.08.2019 02:00:00 13,3 13,1 5 3 NNW 1000,4 10
19.08.2019 01:00:00 13,5 13,3 5 3 - 1001,3 10
19.08.2019 00:00:00 13,9 13,4 9 5 ONO 1002,0 8
18.08.2019 23:00:00 14,4 13,9 9 5 Z 1002,9 10
18.08.2019 22:00:00 14,9 14,3 16 9 ZZW 1003,2 9
18.08.2019 21:00:00 15,2 15,0 15 8 ZZO 1003,7 4,5
18.08.2019 20:00:00 15,2 14,7 21 11 ZZO 1004,2 8
18.08.2019 19:00:00 15,3 14,7 18 10 ZZO 1004,2 10
18.08.2019 18:00:00 15,8 14,8 22 12 Z 1004,5 10
18.08.2019 17:00:00 16,6 14,1 18 10 ZZO 1004,4 10
18.08.2019 16:00:00 16,5 14,3 16 9 Z 1004,4 10
18.08.2019 15:00:00 16,4 14,6 16 9 ZZO 1004,6 10
18.08.2019 14:00:00 16,7 14,3 18 10 Z 1004,5 10
18.08.2019 13:00:00 16,3 14,5 22 12 Z 1004,5 10
18.08.2019 12:00:00 15,9 14,8 21 11 Z 1004,4 10
18.08.2019 11:00:00 15,8 14,7 18 10 Z 1004,4 10
18.08.2019 10:00:00 15,9 14,4 18 10 Z 1004,1 10
18.08.2019 09:00:00 15,3 14,5 18 10 Z 1004,0 10
18.08.2019 08:00:00 14,5 14,0 21 11 ZZO 1003,9 3,6
18.08.2019 07:00:00 14,3 13,5 26 14 ZZO 1004,2 10
18.08.2019 06:00:00 14,4 13,8 28 15 ZZO 1004,2 4,0
18.08.2019 05:00:00 15,1 13,5 28 15 ZZO 1004,8 10
18.08.2019 04:00:00 15,3 13,5 28 15 ZZO 1005,0 10
18.08.2019 03:00:00 15,2 13,4 26 14 ZZO 1005,3 10
18.08.2019 02:00:00 15,1 13,5 24 13 Z 1005,9 10
18.08.2019 01:00:00 14,9 12,8 15 8 ZZO 1006,2 10
18.08.2019 00:00:00 15,3 11,3 16 9 Z 1006,2 10
17.08.2019 23:00:00 15,3 11,7 16 9 Z 1006,3 10
17.08.2019 22:00:00 15,0 11,8 13 7 Z 1006,2 10
17.08.2019 21:00:00 14,9 12,2 15 8 Z 1006,4 10
17.08.2019 20:00:00 15,2 12,1 22 12 Z 1006,5 10
17.08.2019 19:00:00 15,3 11,9 28 15 Z 1006,4 10
17.08.2019 18:00:00 15,7 11,3 29 16 Z 1006,2 10
17.08.2019 17:00:00 16,1 11,3 31 17 Z 1006,2 10
17.08.2019 16:00:00 16,3 10,8 26 14 Z 1006,3 10
17.08.2019 15:00:00 16,5 10,6 29 16 Z 1006,6 10
17.08.2019 14:00:00 17,3 10,7 26 14 ZZO 1006,7 10
17.08.2019 13:00:00 15,4 14,8 28 15 ZZO 1007,2 5
17.08.2019 12:00:00 15,8 15,6 21 11 ZZO 1007,2 3,6
17.08.2019 11:00:00 15,2 14,7 21 11 ZZO 1007,4 2,0
17.08.2019 10:00:00 16,6 14,8 15 8 ZZO 1007,3 10
17.08.2019 09:00:00 15,7 14,4 16 9 ZZO 1007,5 10
17.08.2019 08:00:00 15,6 14,5 9 5 ZO 1007,4 10
17.08.2019 07:00:00 14,6 14,4 11 6 OZO 1007,6 8
17.08.2019 06:00:00 13,8 13,8 8 4 ZO 1007,8 3,1
17.08.2019 05:00:00 12,4 12,2 5 3 ZO 1008,1 0,4
17.08.2019 04:00:00 13,5 12,9 5 3 Z 1008,0 10
17.08.2019 03:00:00 14,4 13,4 9 5 Z 1008,2 10
17.08.2019 02:00:00 14,7 13,4 13 7 Z 1008,2 10
17.08.2019 01:00:00 15,2 13,9 11 6 Z 1008,0 10
17.08.2019 00:00:00 15,1 13,6 8 4 ZO 1008,2 10
16.08.2019 23:00:00 15,0 13,4 9 5 ZO 1008,3 10
16.08.2019 22:00:00 15,1 12,6 15 8 ZZO 1008,7 10
16.08.2019 21:00:00 15,2 12,3 15 8 ZZO 1008,8 10
16.08.2019 20:00:00 15,5 11,5 22 12 Z 1008,8 10
16.08.2019 19:00:00 15,9 11,1 21 11 Z 1008,8 10
16.08.2019 18:00:00 16,0 11,2 22 12 Z 1008,9 10
16.08.2019 17:00:00 17,5 9,9 22 12 Z 1008,8 10
16.08.2019 16:00:00 18,0 10,6 22 12 Z 1009,0 10
16.08.2019 15:00:00 18,0 9,9 26 14 Z 1009,1 10
16.08.2019 14:00:00 18,4 8,9 24 13 ZZW 1009,1 10
16.08.2019 13:00:00 18,9 6,7 26 14 Z 1009,0 10
16.08.2019 12:00:00 19,3 6,1 18 10 Z 1009,0 10
16.08.2019 11:00:00 18,3 7,1 16 9 ZZO 1008,9 10
16.08.2019 10:00:00 17,1 7,4 13 7 ZZO 1008,9 10
16.08.2019 09:00:00 15,7 7,5 8 4 ZZO 1009,1 10
16.08.2019 08:00:00 14,0 8,0 2 1 - 1009,1 10
16.08.2019 07:00:00 8,8 6,2 4 2 NNW 1009,0 10
16.08.2019 06:00:00 6,0 4,8 8 4 NNW 1008,8 10
16.08.2019 05:00:00 4,8 3,9 8 4 NNW 1009,0 10
16.08.2019 04:00:00 4,3 3,6 8 4 NW 1009,0 10
16.08.2019 03:00:00 4,5 3,5 5 3 NW 1008,9 10
16.08.2019 02:00:00 6,5 4,7 8 4 WNW 1008,7 10
16.08.2019 01:00:00 5,6 3,8 8 4 WNW 1008,6 10
16.08.2019 00:00:00 6,7 4,5 5 3 NW 1008,3 10
15.08.2019 23:00:00 8,3 4,7 5 3 W 1007,9 10
15.08.2019 22:00:00 11,6 5,2 9 5 W 1007,5 10
15.08.2019 21:00:00 13,1 5,7 11 6 W 1007,0 10
15.08.2019 20:00:00 15,5 6,2 8 4 W 1006,5 10
15.08.2019 19:00:00 16,0 5,9 16 9 W 1006,3 10
15.08.2019 18:00:00 16,5 5,5 21 11 W 1005,8 10
15.08.2019 17:00:00 16,5 6,0 21 11 W 1005,5 10
15.08.2019 16:00:00 16,9 6,1 28 15 W 1005,1 10
15.08.2019 15:00:00 17,3 5,9 24 13 WNW 1004,6 10
15.08.2019 14:00:00 17,6 6,2 22 12 WNW 1004,2 50
15.08.2019 13:00:00 16,6 6,4 24 13 NW 1003,9 10
15.08.2019 12:00:00 15,7 6,7 29 16 NW 1003,7 10
15.08.2019 11:00:00 15,4 6,7 26 14 NW 1003,4 10
15.08.2019 10:00:00 14,6 6,7 28 15 WNW 1003,1 10
15.08.2019 09:00:00 14,1 6,7 21 11 NW 1003,0 10
15.08.2019 08:00:00 12,9 6,3 22 12 NW 1003,1 10
15.08.2019 07:00:00 11,9 6,4 18 10 W 1003,0 10
15.08.2019 06:00:00 11,6 6,1 16 9 WNW 1002,8 10
15.08.2019 05:00:00 11,4 6,3 18 10 WNW 1002,8 10
15.08.2019 04:00:00 11,8 6,3 18 10 WNW 1002,7 10
15.08.2019 03:00:00 12,1 6,6 22 12 WNW 1002,7 10
15.08.2019 02:00:00 12,2 6,5 21 11 WNW 1002,8 10
15.08.2019 01:00:00 12,5 6,8 18 10 W 1002,7 10
15.08.2019 00:00:00 13,0 6,8 16 9 W 1002,7 10
14.08.2019 23:00:00 13,3 7,1 16 9 W 1002,8 10
14.08.2019 22:00:00 13,6 6,9 15 8 W 1002,7 10
14.08.2019 21:00:00 13,7 7,9 13 7 WZW 1002,7 10
14.08.2019 20:00:00 14,2 7,9 13 7 W 1002,7 10
14.08.2019 19:00:00 15,0 7,5 15 8 W 1002,6 10
14.08.2019 18:00:00 15,6 7,4 18 10 W 1002,3 10
14.08.2019 17:00:00 15,4 7,7 18 10 W 1002,2 10
14.08.2019 16:00:00 15,1 7,4 21 11 W 1002,3 10
14.08.2019 15:00:00 15,2 8,0 22 12 W 1002,3 10
14.08.2019 14:00:00 15,3 8,1 16 9 WZW 1002,4 10
14.08.2019 13:00:00 15,0 7,8 16 9 W 1002,2 10
14.08.2019 12:00:00 14,9 7,7 18 10 W 1002,2 10
14.08.2019 11:00:00 14,7 8,2 21 11 WNW 1002,1 10
14.08.2019 10:00:00 14,7 8,9 18 10 WNW 1001,8 10
14.08.2019 09:00:00 14,1 8,9 22 12 WNW 1001,6 10
14.08.2019 08:00:00 13,3 9,4 22 12 WNW 1001,5 10
14.08.2019 07:00:00 12,2 9,8 18 10 WNW 1001,7 10
14.08.2019 06:00:00 11,4 9,8 13 7 WNW 1001,6 10
14.08.2019 05:00:00 10,9 10,0 9 5 W 1001,7 10
14.08.2019 04:00:00 12,2 9,9 11 6 WNW 1001,7 10
14.08.2019 03:00:00 13,0 11,4 13 7 W 1001,6 10
14.08.2019 02:00:00 12,9 12,3 5 3 W 1001,5 10
14.08.2019 01:00:00 13,5 12,6 5 3 WNW 1001,4 10
14.08.2019 00:00:00 14,2 13,1 5 3 ZW 1001,3 10
13.08.2019 23:00:00 14,5 12,7 5 3 W 1001,4 10

tt = temperatuur
td = dauwpunt
ff = windsnelheid
dd = windrichting
ppp = luchtdruk
vv = zicht

Weerstations in de omgeving